Hourly Weather Holopovo

Today, 11 April, Sunday

Time Temperature Precipitation Wind Pressure Humidity
00:00 +2°C° 0 mm 3 mps 747 mmHg 76%
01:00 +2°C° 0 mm 3 mps 747 mmHg 77%
02:00 +2°C° 0 mm 3 mps 748 mmHg 78%
03:00 +1°C° 0 mm 3 mps 748 mmHg 80%
04:00 +2°C° 0 mm 2 mps 748 mmHg 82%
05:00 +1°C° 0 mm 2 mps 748 mmHg 84%
06:00 +3°C° 0 mm 2 mps 749 mmHg 77%
07:00 +5°C° 0 mm 2 mps 749 mmHg 70%
08:00 +7°C° 0 mm 2 mps 750 mmHg 64%
09:00 +9°C° 0 mm 3 mps 750 mmHg 59%
10:00 +11°C° 0 mm 3 mps 750 mmHg 55%
11:00 +12°C° 0 mm 3 mps 750 mmHg 50%
12:00 +13°C° 0 mm 3 mps 750 mmHg 48%
13:00 +14°C° 0 mm 3 mps 751 mmHg 46%
14:00 +14°C° 0 mm 3 mps 751 mmHg 44%
15:00 +14°C° 0 mm 3 mps 751 mmHg 48%
16:00 +14°C° 0 mm 2 mps 751 mmHg 51%
17:00 +14°C° 0 mm 2 mps 751 mmHg 54%
18:00 +12°C° 0 mm 2 mps 751 mmHg 59%
19:00 +10°C° 0 mm 2 mps 752 mmHg 64%
20:00 +8°C° 0 mm 2 mps 752 mmHg 69%
21:00 +8°C° 0 mm 2 mps 752 mmHg 70%
22:00 +7°C° 0 mm 2 mps 753 mmHg 72%
23:00 +6°C° 0 mm 2 mps 753 mmHg 74%

Tomorrow, 12 April, Monday

Time Temperature Precipitation Wind Pressure Humidity
00:00 +6°C° 0 mm 2 mps 753 mmHg 75%
01:00 +6°C° 0 mm 2 mps 753 mmHg 76%
02:00 +5°C° 0 mm 2 mps 753 mmHg 77%
03:00 +5°C° 0 mm 2 mps 753 mmHg 79%
04:00 +4°C° 0 mm 2 mps 753 mmHg 80%
05:00 +4°C° 0 mm 2 mps 753 mmHg 82%
06:00 +5°C° 0 mm 3 mps 753 mmHg 75%
07:00 +7°C° 0 mm 3 mps 753 mmHg 68%
08:00 +8°C° 0 mm 4 mps 753 mmHg 61%
09:00 +10°C° 0 mm 4 mps 753 mmHg 54%
10:00 +10°C° 0 mm 5 mps 752 mmHg 48%
11:00 +13°C° 0 mm 5 mps 752 mmHg 42%
12:00 +13°C° 0 mm 5 mps 751 mmHg 43%
13:00 +13°C° 0 mm 5 mps 751 mmHg 44%
14:00 +13°C° 0 mm 5 mps 750 mmHg 45%
15:00 +13°C° 0 mm 5 mps 750 mmHg 53%
16:00 +12°C° 0 mm 4 mps 750 mmHg 61%
17:00 +11°C° 0 mm 4 mps 749 mmHg 69%
18:00 +11°C° 0 mm 4 mps 749 mmHg 75%
19:00 +10°C° 0 mm 3 mps 749 mmHg 80%
20:00 +9°C° 0 mm 3 mps 749 mmHg 85%
21:00 +9°C° 0 mm 3 mps 749 mmHg 88%
22:00 +8°C° 0 mm 3 mps 749 mmHg 91%
23:00 +7°C° 0 mm 2 mps 748 mmHg 94%

Day after tomorrow, 13 April, Tuesday

Time Temperature Precipitation Wind Pressure Humidity
00:00 +7°C° 0 mm 2 mps 748 mmHg 95%
01:00 +7°C° 0 mm 2 mps 748 mmHg 95%
02:00 +7°C° 0 mm 2 mps 748 mmHg 95%
03:00 +7°C° 0 mm 2 mps 747 mmHg 95%
04:00 +7°C° 0 mm 2 mps 747 mmHg 95%
05:00 +7°C° 0 mm 2 mps 747 mmHg 94%
06:00 +8°C° 0 mm 2 mps 747 mmHg 88%
07:00 +10°C° 0 mm 2 mps 747 mmHg 82%
08:00 +12°C° 0 mm 2 mps 747 mmHg 76%
09:00 +14°C° 0 mm 2 mps 747 mmHg 70%
10:00 +14°C° 0 mm 3 mps 747 mmHg 64%
11:00 +17°C° 0 mm 3 mps 747 mmHg 58%
12:00 +18°C° 0 mm 3 mps 747 mmHg 57%
13:00 +18°C° 0 mm 4 mps 746 mmHg 55%
14:00 +19°C° 0 mm 4 mps 746 mmHg 53%
15:00 +18°C° 0 mm 3 mps 746 mmHg 57%
16:00 +17°C° 0 mm 3 mps 746 mmHg 61%
17:00 +17°C° 0 mm 3 mps 746 mmHg 65%
18:00 +15°C° 0 mm 2 mps 746 mmHg 69%
19:00 +14°C° 0 mm 2 mps 746 mmHg 73%
20:00 +13°C° 0 mm 2 mps 746 mmHg 77%
21:00 +12°C° 0 mm 2 mps 746 mmHg 78%
22:00 +12°C° 0 mm 2 mps 746 mmHg 78%
23:00 +10°C° 0 mm 2 mps 745 mmHg 79%

14 April, Wednesday

Time Temperature Precipitation Wind Pressure Humidity
00:00 +10°C° 0 mm 2 mps 745 mmHg 78%
01:00 +9°C° 0 mm 2 mps 745 mmHg 78%
02:00 +9°C° 0 mm 2 mps 745 mmHg 77%
03:00 +9°C° 0 mm 2 mps 745 mmHg 78%
04:00 +9°C° 0 mm 2 mps 745 mmHg 79%
05:00 +8°C° 0 mm 2 mps 744 mmHg 80%
06:00 +10°C° 0 mm 3 mps 744 mmHg 75%
07:00 +11°C° 0 mm 3 mps 745 mmHg 70%
08:00 +13°C° 0 mm 3 mps 745 mmHg 65%
09:00 +14°C° 0 mm 4 mps 744 mmHg 61%
10:00 +17°C° 0 mm 4 mps 744 mmHg 56%
11:00 +17°C° 0 mm 5 mps 744 mmHg 51%
12:00 +17°C° 0 mm 5 mps 744 mmHg 49%
13:00 +19°C° 0 mm 4 mps 744 mmHg 47%
14:00 +19°C° 0 mm 4 mps 743 mmHg 45%
15:00 +18°C° 0.1 mm 4 mps 743 mmHg 49%
16:00 +18°C° 0.1 mm 3 mps 743 mmHg 54%
17:00 +17°C° 0.1 mm 2 mps 743 mmHg 58%
18:00 +16°C° 0.1 mm 2 mps 743 mmHg 62%
19:00 +14°C° 0.1 mm 1 mps 743 mmHg 67%
20:00 +13°C° 0.1 mm 1 mps 743 mmHg 71%
21:00 +12°C° 0 mm 1 mps 743 mmHg 71%
22:00 +12°C° 0 mm 1 mps 743 mmHg 71%
23:00 +11°C° 0 mm 1 mps 743 mmHg 70%

15 April, Thursday

Time Temperature Precipitation Wind Pressure Humidity
00:00 +11°C° 0 mm 1 mps 743 mmHg 71%
01:00 +11°C° 0 mm 1 mps 742 mmHg 71%
02:00 +10°C° 0 mm 1 mps 742 mmHg 71%
03:00 +10°C° 0 mm 1 mps 742 mmHg 72%
04:00 +10°C° 0 mm 1 mps 742 mmHg 73%
05:00 +9°C° 0 mm 1 mps 742 mmHg 75%
06:00 +9°C° 0 mm 2 mps 742 mmHg 73%
07:00 +10°C° 0 mm 2 mps 742 mmHg 72%
08:00 +12°C° 0 mm 2 mps 742 mmHg 71%
09:00 +12°C° 0 mm 3 mps 742 mmHg 67%
10:00 +13°C° 0 mm 3 mps 742 mmHg 63%
11:00 +14°C° 0 mm 3 mps 742 mmHg 59%
12:00 +14°C° 0 mm 3 mps 742 mmHg 57%
13:00 +16°C° 0 mm 3 mps 742 mmHg 55%
14:00 +15°C° 0 mm 4 mps 742 mmHg 53%
15:00 +14°C° 0.1 mm 5 mps 742 mmHg 60%
16:00 +12°C° 0.1 mm 5 mps 743 mmHg 67%
17:00 +10°C° 0.1 mm 6 mps 743 mmHg 74%
18:00 +8°C° 0.1 mm 6 mps 743 mmHg 78%
19:00 +7°C° 0.1 mm 6 mps 744 mmHg 81%
20:00 +4°C° 0.1 mm 6 mps 744 mmHg 85%
21:00 +3°C° 0.2 mm 6 mps 744 mmHg 86%
22:00 +3°C° 0.2 mm 7 mps 745 mmHg 87%
23:00 +2°C° 0.2 mm 7 mps 745 mmHg 88%

16 April, Friday

Time Temperature Precipitation Wind Pressure Humidity
00:00 +2°C° 0.3 mm 7 mps 745 mmHg 85%
01:00 +2°C° 0.3 mm 6 mps 746 mmHg 83%
02:00 +2°C° 0.3 mm 6 mps 746 mmHg 80%
03:00 +2°C° 0.1 mm 7 mps 746 mmHg 77%
04:00 0°C° 0.1 mm 7 mps 746 mmHg 75%
05:00 0°C° 0.1 mm 7 mps 747 mmHg 73%
06:00 0°C° 0 mm 7 mps 747 mmHg 70%
07:00 +2°C° 0 mm 7 mps 748 mmHg 67%
08:00 +2°C° 0 mm 7 mps 748 mmHg 64%
09:00 +3°C° 0 mm 7 mps 748 mmHg 57%
10:00 +4°C° 0 mm 7 mps 749 mmHg 51%
11:00 +6°C° 0 mm 7 mps 749 mmHg 44%
12:00 +6°C° 0 mm 7 mps 749 mmHg 42%
13:00 +8°C° 0 mm 7 mps 749 mmHg 41%
14:00 +8°C° 0 mm 7 mps 749 mmHg 39%
15:00 +8°C° 0 mm 7 mps 750 mmHg 41%
16:00 +7°C° 0 mm 6 mps 750 mmHg 43%
17:00 +7°C° 0 mm 6 mps 750 mmHg 45%
18:00 +4°C° 0 mm 6 mps 751 mmHg 48%
19:00 +3°C° 0 mm 5 mps 751 mmHg 51%
20:00 +2°C° 0 mm 5 mps 752 mmHg 55%
21:00 +1°C° 0 mm 5 mps 752 mmHg 58%
22:00 0°C° 0 mm 4 mps 752 mmHg 62%
23:00 -1°C° 0 mm 4 mps 753 mmHg 66%
Show more